Notices

What's New in latest Release from April 7th, 2021:

- Updated Glossary, including Speed of Maximum Gust, and Total Hourly Precipitation

- Updated national and regional climate services offices contacts and prices information

- Addition of station inventory lists for 1981-2010, 1971-2000, and 1961-1990 Normals.

If you haven't already, please take our survey and provide feedback about our website: https://eccc.sondage-survey.ca/f/LanguageSelection.aspx?s=442ca660-fcf1-47c0-95a9-59707d6fd709

Hourly Data Report for November 30, 2020

MUSKOKA
ONTARIO
Current Station Operator: NAVCAN

44°58'29.000" N
79°18'12.000" W
281.90 m
6115529
71532
YQA

Download Data

Hourly Data (November 2020)
Hourly Data Report for November 30, 2020
TIME
LST
Temp Definition
°C
Dew Point Definition
°C
Rel Hum Definition
%
Precip. Amount Definition
mm

Wind Dir Definition
10's deg

Wind Spd Definition
km/h
Visibility Definition
km
Stn Press Definition
kPa
Hmdx Definition


Wind Chill Definition


Weather Definition


00:00 2.4 1.2 92 LegendMM 16 8 16.1 97.64     LegendNANA
01:00 2.1 0.9 92 LegendMM 17 9 16.1 97.58     LegendNANA
02:00 2.6 1.1 90 LegendMM 18 9 16.1 97.58     LegendNANA
03:00 1.6 0.7 94 LegendMM 14 5 16.1 97.53     LegendNANA
04:00 1.7 1.0 95 LegendMM 15 4 16.1 97.54     LegendNANA
05:00 1.5 0.8 95 LegendMM   0 16.1 97.50     LegendNANA
06:00 1.0 0.5 96 LegendMM 13 5 16.1 97.44     LegendNANA
07:00 1.2 0.6 96 LegendMM LegendMM 4 16.1 97.39     LegendNANA
08:00 1.7 0.4 91 LegendMM LegendMM 4 16.1 97.38     LegendNANA
09:00 2.0 0.7 91 LegendMM   0 16.1 97.37     LegendNANA
10:00 2.8 1.0 88 LegendMM 35 5 16.1 97.30     LegendNANA
11:00 3.8 1.1 83 LegendMM LegendMM 4 16.1 97.23     LegendNANA
12:00 4.3 1.2 80 LegendMM LegendMM 5 16.1 97.10     Rain
13:00 3.9 2.1 88 LegendMM 4 8 16.1 96.99     Rain
14:00 3.2 2.2 93 LegendMM 2 8 11.3 96.87     Rain
15:00 2.3 1.4 94 LegendMM 2 13 11.3 96.75     Moderate Rain
16:00 1.2 0.6 96 LegendMM 35 11 9.7 96.71     Snow
17:00 0.6 0.2 97 LegendMM 35 17 3.2 96.65     Snow
18:00 0.5 -0.1 96 LegendMM 34 18 4.0 96.60     Snow
19:00 0.4 -0.3 95 LegendMM 35 18 3.2 96.58     Snow
20:00 0.1 -0.8 94 LegendMM 35 22 3.2 96.61     Snow
21:00 -1.0 -1.7 95 LegendMM 34 18 2.0 96.63   -6 Snow
22:00 -1.6 -2.9 91 LegendMM 35 21 12.9 96.61   -7 Snow
23:00 -2.0 -3.4 90 LegendMM 35 24 14.5 96.59   -8 Snow

Notes on Data Quality.

Legend

  • E = Estimated
  • M = Missing
  • NA = Not Available*
  • [empty] = Indicates an unobserved value
Date modified: